CW0506 Weather Reports


Display with metric or nautical units.
time (UTC)temp
F
wind
direction
speed
MPH
gust
MPH
rain 1hr
in
rain 24hr
in
rain mn
in
humidity
%
barometer
mb
20260510045921 52 132 0.0 1.0 0.00 0.00 0.00 99 1012.9
20260510045418 52 137 0.0 1.0 0.00 0.00 0.00 99 1013.0
20260510044915 52 115 0.0 0.0 0.00 0.00 0.00 99 1012.8
20260510044412 52 115 0.0 0.0 0.00 0.00 0.00 99 1012.9
20260510043908 52 115 0.0 0.0 0.00 0.00 0.00 99 1012.9
20260510043404 52 91 0.0 1.0 0.00 0.00 0.00 99 1012.6
20260510042903 52 254 0.0 0.0 0.00 0.00 0.00 99 1013.0
20260510042358 52 262 0.0 1.0 0.00 0.00 0.00 99 1012.8
20260510041854 52 189 0.0 1.0 0.00 0.00 0.00 99 1012.6
20260510041352 52 165 0.0 1.0 0.00 0.00 0.00 99 1012.7
20260510040849 52 150 0.0 1.0 0.00 0.00 0.00 99 1012.6
20260510040346 52 150 0.0 1.0 0.00 0.00 0.00 99 1012.7
20260510035841 52 144 0.0 0.0 0.00 0.50 0.50 99 1012.7
20260510035337 52 137 0.0 1.0 0.00 0.50 0.50 99 1012.8
20260510034833 53 235 0.0 2.0 0.00 0.50 0.50 99 1012.9
20260510034331 53 87 0.0 1.0 0.00 0.50 0.50 99 1012.9
20260510033827 53 247 0.0 2.0 0.00 0.50 0.50 99 1012.8
20260510033324 53 264 0.0 1.0 0.00 0.50 0.50 99 1012.9
20260510032821 53 242 0.0 2.0 0.00 0.50 0.50 99 1012.8
20260510032318 53 227 2.0 3.0 0.00 0.50 0.50 99 1012.7
20260510031813 53 335 0.0 3.0 0.00 0.50 0.50 99 1012.7
20260510031309 53 0 2.0 4.0 0.00 0.50 0.50 99 1012.9
20260510030803 53 39 0.0 2.0 0.00 0.50 0.50 99 1013.0
20260510030300 53 277 0.0 3.0 0.00 0.50 0.50 99 1013.0
20260510025757 53 59 0.0 2.0 0.00 0.50 0.50 99 1012.9
20260510025255 53 307 0.0 2.0 0.00 0.50 0.50 99 1012.8
20260510024751 53 335 0.0 2.0 0.00 0.50 0.50 99 1012.7
20260510024248 53 250 2.0 5.0 0.00 0.50 0.50 99 1012.5
20260510023743 53 304 2.0 6.0 0.00 0.50 0.50 99 1012.3
20260510023235 53 319 2.0 3.0 0.00 0.50 0.50 99 1012.7
20260510022731 53 162 0.0 1.0 0.00 0.50 0.50 99 1012.6
20260510022226 53 270 0.0 2.0 0.00 0.50 0.50 99 1012.6
20260510021721 53 324 0.0 2.0 0.00 0.50 0.50 99 1012.8
20260510021219 53 236 1.0 2.0 0.00 0.50 0.50 99 1012.7
20260510020714 53 238 0.0 2.0 0.00 0.50 0.50 99 1012.7
20260510020209 53 144 0.0 1.0 0.00 0.50 0.50 99 1012.8
20260510015704 53 125 0.0 2.0 0.00 0.50 0.50 99 1012.9
20260510015201 53 61 0.0 2.0 0.00 0.50 0.50 99 1013.0
20260510014655 53 83 0.0 1.0 0.00 0.50 0.50 99 1012.8
20260510014153 53 267 1.0 2.0 0.00 0.50 0.50 99 1012.8
20260510013648 53 240 3.0 4.0 0.00 0.50 0.50 99 1013.0
20260510013144 53 262 0.0 4.0 0.00 0.50 0.50 99 1013.0
20260510012644 53 107 3.0 4.0 0.00 0.50 0.50 99 1012.8
20260510012140 53 132 2.0 3.0 0.00 0.50 0.50 99 1012.8
20260510011635 53 133 0.0 2.0 0.00 0.50 0.50 99 1012.6
20260510011131 53 59 1.0 2.0 0.00 0.50 0.50 99 1012.7
20260510010627 53 76 0.0 2.0 0.00 0.50 0.50 99 1012.3
20260510010125 53 113 1.0 2.0 0.00 0.50 0.50 99 1012.3
20260510005620 53 66 0.0 0.0 0.00 0.50 0.50 99 1012.4
20260510005117 53 155 0.0 0.0 0.00 0.50 0.50 99 1012.3
20260510004615 53 155 0.0 1.0 0.00 0.50 0.50 99 1012.4
20260510004113 53 128 1.0 1.0 0.00 0.50 0.50 99 1012.2
20260510003610 53 160 0.0 1.0 0.00 0.50 0.50 99 1012.4
20260510003106 53 119 0.0 2.0 0.00 0.50 0.50 99 1012.3
20260510002600 53 115 0.0 1.0 0.00 0.50 0.50 99 1012.2
20260510002057 53 98 1.0 1.0 0.00 0.50 0.50 99 1012.0
20260510001554 53 139 1.0 2.0 0.00 0.50 0.50 99 1012.0
20260510001053 53 36 1.0 2.0 0.00 0.50 0.50 99 1012.2
20260510000548 53 66 2.0 2.0 0.00 0.50 0.50 99 1012.0
20260510000046 53 100 0.0 1.0 0.00 0.50 0.50 99 1011.9
20260509235542 53 182 0.0 2.0 0.00 0.50 0.50 99 1011.9
20260509235039 53 83 1.0 2.0 0.00 0.50 0.50 99 1011.9
20260509234535 53 137 1.0 3.0 0.00 0.50 0.50 99 1011.9
20260509234033 53 129 0.0 3.0 0.00 0.50 0.50 99 1012.1
20260509233530 53 100 1.0 2.0 0.00 0.50 0.50 99 1012.0
20260509233027 53 303 0.0 2.0 0.00 0.50 0.50 99 1012.2
20260509232524 53 286 2.0 4.0 0.00 0.50 0.50 99 1012.1
20260509232020 52 256 2.0 3.0 0.00 0.50 0.50 99 1012.3
20260509231517 52 110 1.0 1.0 0.00 0.50 0.50 99 1012.4
20260509231015 52 70 0.0 2.0 0.00 0.50 0.50 99 1012.4
20260509230511 52 277 0.0 2.0 0.00 0.50 0.50 99 1012.5
20260509230008 52 73 0.0 2.0 0.00 0.50 0.50 99 1012.2
20260509225504 52 264 0.0 2.0 0.02 0.50 0.50 99 1012.7
20260509224959 52 250 0.0 2.0 0.02 0.50 0.50 99 1012.5
20260509224449 52 243 1.0 3.0 0.00 0.50 0.50 99 1012.7
20260509223946 52 305 0.0 2.0 0.02 0.50 0.50 99 1012.4
20260509223443 52 60 0.0 5.0 0.02 0.50 0.50 99 1012.7
20260509222941 52 318 1.0 2.0 0.05 0.49 0.49 99 1012.6
20260509222436 52 105 0.0 2.0 0.09 0.49 0.49 99 1012.6
20260509221932 52 335 3.0 5.0 0.09 0.48 0.48 99 1012.7
20260509221429 52 161 1.0 2.0 0.07 0.47 0.47 99 1012.7
20260509220924 52 92 0.0 2.0 0.05 0.47 0.47 99 1012.6
20260509220420 51 132 1.0 2.0 0.05 0.46 0.46 99 1012.9
20260509215917 51 117 1.0 2.0 0.05 0.46 0.46 99 1012.8
20260509215412 51 264 1.0 3.0 0.05 0.45 0.45 99 1013.1
20260509214910 51 155 0.0 1.0 0.02 0.45 0.45 99 1012.7
20260509214407 51 251 0.0 1.0 0.00 0.45 0.45 99 1012.9
20260509213904 51 106 0.0 0.0 0.02 0.45 0.45 99 1012.9
20260509213359 51 106 0.0 1.0 0.02 0.45 0.45 99 1013.0
20260509212857 51 55 1.0 3.0 0.00 0.44 0.44 99 1012.7
20260509212355 51 88 0.0 3.0 0.02 0.44 0.44 99 1012.6
20260509211851 51 95 0.0 3.0 0.02 0.44 0.44 99 1012.5
20260509211346 51 317 0.0 2.0 0.00 0.44 0.44 99 1012.6
20260509210843 52 242 0.0 2.0 0.02 0.44 0.44 99 1012.8
20260509210341 52 257 0.0 2.0 0.05 0.44 0.44 99 1012.6
20260509205840 51 224 1.0 2.0 0.07 0.43 0.43 99 1012.7
20260509205335 51 254 0.0 1.0 0.05 0.42 0.42 99 1012.7
20260509204832 51 6 0.0 2.0 0.07 0.42 0.42 99 1013.0
20260509204328 52 95 1.0 3.0 0.09 0.42 0.42 99 1012.6
20260509203824 52 240 0.0 2.0 0.12 0.41 0.41 99 1012.9
20260509203321 52 274 2.0 3.0 0.26 0.40 0.40 99 1013.0
20260509202818 52 314 0.0 2.0 0.31 0.39 0.39 99 1013.2
20260509202314 52 249 1.0 2.0 0.17 0.35 0.35 99 1013.3
20260509201813 52 310 2.0 3.0 0.12 0.33 0.33 99 1013.0
20260509201310 52 236 0.0 1.0 0.12 0.32 0.32 99 1013.0
20260509200807 52 89 1.0 1.0 0.14 0.31 0.31 99 1012.8
20260509200302 52 125 0.0 1.0 0.14 0.30 0.30 99 1013.0
20260509195758 52 289 1.0 2.0 0.12 0.29 0.29 99 1013.0
20260509195253 52 101 0.0 2.0 0.14 0.28 0.28 99 1012.8
20260509194748 52 144 0.0 1.0 0.12 0.27 0.27 99 1013.2
20260509194244 52 230 0.0 2.0 0.12 0.26 0.26 99 1013.1
20260509193742 52 136 1.0 2.0 0.12 0.24 0.24 99 1013.0
20260509193241 52 228 2.0 2.0 0.09 0.23 0.23 99 1013.1
20260509192738 52 70 1.0 1.0 0.14 0.22 0.22 99 1013.2
20260509192232 52 129 0.0 2.0 0.33 0.21 0.21 98 1013.1
20260509191728 53 249 0.0 3.0 0.42 0.20 0.20 98 1013.1
20260509191225 53 213 0.0 3.0 0.31 0.15 0.15 97 1013.1
20260509190721 53 11 2.0 5.0 0.24 0.12 0.12 96 1013.3
20260509190218 53 159 1.0 2.0 0.09 0.09 0.09 96 1013.2
20260509185716 54 231 1.0 3.0 0.05 0.08 0.08 95 1013.1
20260509185212 54 166 2.0 2.0 0.02 0.08 0.08 94 1012.9
20260509184710 54 235 1.0 3.0 0.00 0.07 0.07 94 1012.8
20260509184207 54 213 1.0 3.0 0.00 0.07 0.07 93 1012.9
20260509183703 54 160 0.0 2.0 0.00 0.07 0.07 93 1012.9
20260509183158 54 189 1.0 2.0 0.00 0.07 0.07 92 1012.9
20260509182654 55 213 2.0 3.0 0.00 0.07 0.07 91 1012.8
20260509182152 55 124 2.0 3.0 0.00 0.07 0.07 91 1013.0
20260509181649 55 342 0.0 1.0 0.00 0.07 0.07 92 1012.7
20260509181147 54 158 1.0 3.0 0.00 0.07 0.07 91 1012.8
20260509180643 54 115 0.0 2.0 0.00 0.07 0.07 92 1012.8
20260509180139 54 109 0.0 4.0 0.00 0.07 0.07 92 1013.0
20260509175635 54 91 3.0 4.0 0.00 0.07 0.07 91 1013.0
20260509175133 54 131 3.0 5.0 0.00 0.07 0.07 92 1013.0
20260509174628 54 128 1.0 5.0 0.00 0.07 0.07 92 1013.2
20260509174123 54 117 1.0 2.0 0.00 0.07 0.07 92 1013.1
20260509173620 53 134 1.0 3.0 0.00 0.07 0.07 93 1013.4
20260509173115 53 235 1.0 3.0 0.00 0.07 0.07 93 1013.5
20260509172612 53 299 1.0 5.0 0.00 0.07 0.07 93 1013.5
20260509172108 53 263 0.0 2.0 0.00 0.07 0.07 92 1013.5
20260509171558 52 311 2.0 3.0 0.00 0.07 0.07 91 1013.8
20260509171055 52 313 3.0 4.0 0.00 0.07 0.07 92 1013.7
20260509170551 53 283 3.0 4.0 0.00 0.07 0.07 92 1013.7
20260509170046 52 216 2.0 2.0 0.00 0.07 0.07 94 1013.8
20260509165545 51 315 2.0 4.0 0.02 0.07 0.07 93 1014.2
20260509165040 51 209 2.0 2.0 0.02 0.07 0.07 94 1013.2
20260509164537 52 84 2.0 3.0 0.00 0.07 0.07 95 1013.8
20260509164033 52 23 1.0 3.0 0.00 0.07 0.07 94 1013.8
20260509163532 52 257 2.0 3.0 0.00 0.07 0.07 93 1014.0
20260509163031 51 144 0.0 1.0 0.00 0.07 0.07 93 1014.1
20260509162529 51 202 1.0 2.0 0.00 0.07 0.07 93 1014.2
20260509162025 51 114 2.0 2.0 0.00 0.07 0.07 93 1014.2
20260509161522 51 142 2.0 2.0 0.00 0.07 0.07 93 1014.2
20260509161022 51 149 0.0 3.0 0.02 0.07 0.07 93 1014.4
20260509160518 51 197 1.0 3.0 0.02 0.07 0.07 92 1014.4
20260509160014 50 247 2.0 4.0 0.00 0.07 0.07 92 1014.5
20260509155510 51 308 3.0 5.0 0.00 0.07 0.07 91 1014.5
20260509155006 51 312 0.0 2.0 0.00 0.07 0.07 91 1014.2
20260509154502 51 116 4.0 4.0 0.00 0.07 0.07 90 1014.2
20260509154000 51 159 2.0 4.0 0.00 0.07 0.07 90 1014.6
20260509153457 51 64 0.0 4.0 0.00 0.07 0.07 90 1014.7
20260509152953 50 130 3.0 5.0 0.00 0.07 0.07 91 1014.4
20260509152449 51 105 4.0 7.0 0.00 0.07 0.07 89 1014.6
20260509151946 50 212 2.0 4.0 0.00 0.07 0.07 90 1014.3
20260509151442 50 138 2.0 5.0 0.00 0.07 0.07 91 1014.2
20260509150940 50 74 2.0 3.0 0.00 0.07 0.07 91 1014.5
20260509150438 49 236 4.0 6.0 0.00 0.07 0.07 91 1014.4
20260509145937 50 326 0.0 3.0 0.00 0.07 0.07 91 1014.6
20260509145436 50 233 2.0 3.0 0.00 0.07 0.07 89 1014.6
20260509144932 50 310 2.0 3.0 0.00 0.07 0.07 88 1014.3
20260509144429 50 176 2.0 2.0 0.00 0.07 0.07 89 1014.4
20260509143926 50 154 0.0 4.0 0.00 0.07 0.07 89 1014.2
20260509143424 49 342 0.0 3.0 0.00 0.07 0.07 89 1014.3
20260509142920 49 195 2.0 3.0 0.00 0.07 0.07 90 1014.5
20260509142417 49 113 2.0 4.0 0.00 0.07 0.07 91 1014.4
20260509141912 48 176 2.0 3.0 0.00 0.07 0.07 91 1014.4
20260509141409 48 189 1.0 3.0 0.00 0.07 0.07 92 1014.5
20260509140906 48 109 3.0 3.0 0.00 0.07 0.07 92 1014.4
20260509140403 48 88 1.0 3.0 0.00 0.07 0.07 92 1014.5
20260509135901 48 150 0.0 2.0 0.00 0.07 0.07 91 1014.6
20260509135358 49 284 3.0 4.0 0.00 0.07 0.07 91 1014.6
20260509134855 48 222 0.0 3.0 0.00 0.07 0.07 91 1014.6
20260509134352 48 269 2.0 2.0 0.00 0.07 0.07 92 1014.7
20260509133849 48 221 1.0 3.0 0.00 0.07 0.07 92 1014.6
20260509133346 47 136 1.0 3.0 0.00 0.07 0.07 93 1014.7
20260509132845 47 233 2.0 3.0 0.00 0.07 0.07 93 1014.8
20260509132343 47 295 0.0 2.0 0.00 0.07 0.07 94 1015.0
20260509131839 46 272 2.0 3.0 0.00 0.07 0.07 95 1015.0
20260509131336 46 191 1.0 3.0 0.00 0.07 0.07 96 1015.2
20260509130832 46 170 1.0 3.0 0.00 0.07 0.07 97 1015.3
20260509130328 46 128 0.0 2.0 0.00 0.07 0.07 97 1015.1
20260509125825 46 171 1.0 3.0 0.00 0.07 0.07 98 1015.3
20260509125321 46 187 2.0 2.0 0.00 0.07 0.07 99 1015.3
20260509124818 46 197 1.0 3.0 0.00 0.07 0.07 99 1015.3
20260509124314 45 262 1.0 2.0 0.00 0.07 0.07 99 1015.3
20260509123813 45 179 2.0 2.0 0.00 0.07 0.07 99 1015.5
20260509123310 44 127 2.0 3.0 0.00 0.07 0.07 99 1015.3
20260509122805 44 94 0.0 2.0 0.00 0.07 0.07 99 1015.3
20260509122305 44 287 1.0 2.0 0.00 0.07 0.07 99 1015.4
20260509121759 44 138 0.0 3.0 0.00 0.07 0.07 99 1015.5
20260509121256 44 163 2.0 3.0 0.00 0.07 0.07 99 1015.7
20260509120755 44 317 2.0 3.0 0.00 0.07 0.07 99 1015.7
20260509120252 44 339 0.0 3.0 0.00 0.07 0.07 99 1015.6
20260509115750 44 290 1.0 2.0 0.00 0.07 0.07 99 1015.7
20260509115247 43 166 0.0 1.0 0.00 0.07 0.07 99 1015.6
20260509114745 43 263 0.0 3.0 0.00 0.07 0.07 99 1015.8
20260509114243 43 255 2.0 3.0 0.00 0.07 0.07 99 1015.8
20260509113742 43 269 1.0 3.0 0.00 0.07 0.07 99 1015.4
20260509113238 43 201 1.0 3.0 0.00 0.07 0.07 99 1015.4
20260509112736 43 254 3.0 3.0 0.00 0.07 0.07 99 1015.4
20260509112233 42 222 0.0 2.0 0.00 0.07 0.07 99 1015.4
20260509111730 43 266 0.0 3.0 0.00 0.07 0.07 99 1015.7
20260509111226 42 168 1.0 3.0 0.00 0.07 0.07 99 1015.6
20260509110724 42 269 0.0 2.0 0.00 0.07 0.07 99 1015.7
20260509110220 42 172 0.0 2.0 0.00 0.07 0.07 99 1015.7
20260509105719 42 252 1.0 3.0 0.00 0.07 0.07 99 1015.7
20260509105216 42 224 0.0 3.0 0.02 0.07 0.07 99 1015.5
20260509104713 42 266 0.0 2.0 0.02 0.07 0.07 99 1015.9
20260509104209 42 157 0.0 2.0 0.02 0.06 0.06 99 1015.8
20260509103708 42 133 0.0 2.0 0.02 0.06 0.06 99 1015.7
20260509103204 42 240 0.0 3.0 0.00 0.06 0.06 99 1015.6
20260509102703 42 260 2.0 3.0 0.00 0.06 0.06 99 1015.5
20260509102200 42 257 1.0 3.0 0.02 0.06 0.06 99 1015.6
20260509101656 42 282 2.0 3.0 0.00 0.06 0.06 99 1015.7
20260509101152 42 279 0.0 2.0 0.00 0.06 0.06 99 1015.7
20260509100650 42 286 1.0 2.0 0.00 0.06 0.06 99 1015.5
20260509100147 42 224 0.0 3.0 0.00 0.06 0.06 99 1015.7
20260509095643 42 225 0.0 2.0 0.00 0.06 0.06 99 1015.9
20260509095141 42 67 0.0 2.0 0.00 0.06 0.06 99 1015.8
20260509094637 42 47 2.0 2.0 0.02 0.06 0.06 98 1015.7
20260509094134 42 201 2.0 3.0 0.02 0.06 0.06 98 1015.8
20260509093633 42 284 1.0 4.0 0.00 0.05 0.05 98 1015.6
20260509093129 42 230 3.0 4.0 0.00 0.05 0.05 98 1015.5
20260509092627 42 79 0.0 2.0 0.00 0.05 0.05 98 1015.1
20260509092126 42 203 0.0 2.0 0.02 0.05 0.05 98 1015.1
20260509091624 42 111 0.0 3.0 0.02 0.05 0.05 97 1015.1
20260509091119 42 305 2.0 3.0 0.02 0.05 0.05 97 1014.9
20260509090617 42 221 1.0 2.0 0.02 0.05 0.05 97 1015.0
20260509090114 42 20 0.0 2.0 0.02 0.04 0.04 96 1015.1
20260509085612 42 230 1.0 2.0 0.05 0.04 0.04 96 1015.1
20260509085107 42 222 0.0 2.0 0.07 0.04 0.04 95 1015.1
20260509084605 42 54 2.0 3.0 0.05 0.03 0.03 94 1015.2
20260509084102 42 244 1.0 2.0 0.07 0.03 0.03 94 1015.3
20260509083559 42 189 0.0 3.0 0.07 0.02 0.02 93 1015.2
20260509083055 42 227 0.0 4.0 0.07 0.02 0.02 92 1015.3
20260509082553 42 161 1.0 2.0 0.07 0.01 0.01 91 1015.1
20260509082050 42 189 0.0 2.0 0.02 0.00 0.00 90 1015.0
20260509081547 42 100 0.0 2.0 0.00 0.00 0.00 89 1015.1
20260509081044 42 268 2.0 2.0 0.00 0.00 0.00 89 1015.0
20260509080542 42 259 1.0 3.0 0.00 0.00 0.00 89 1014.9
20260509080040 42 221 1.0 2.0 0.00 0.00 0.00 89 1014.9
20260509075537 42 325 0.0 3.0 0.00 0.00 0.00 89 1014.9
20260509075035 42 226 2.0 3.0 0.00 0.00 0.00 89 1014.7
20260509074532 42 286 2.0 3.0 0.00 0.00 0.00 89 1014.7
20260509074028 42 154 2.0 3.0 0.00 0.00 0.00 89 1014.6
20260509073525 42 231 1.0 3.0 0.00 0.00 0.00 89 1014.8
20260509073021 42 269 0.0 2.0 0.00 0.00 0.00 89 1014.6
20260509072518 42 249 2.0 2.0 0.00 0.00 0.00 88 1014.4
20260509072015 42 153 2.0 2.0 0.00 0.00 0.00 88 1014.7
20260509071511 42 324 0.0 2.0 0.00 0.00 0.00 87 1014.9
20260509071009 42 267 1.0 3.0 0.00 0.00 0.00 87 1015.0
20260509070506 42 222 2.0 3.0 0.00 0.00 0.00 87 1015.1
20260509070002 42 225 2.0 2.0 0.00 0.00 0.00 87 1015.0
20260509065458 42 280 1.0 2.0 0.00 0.00 0.00 86 1015.0
20260509064954 42 189 0.0 3.0 0.00 0.00 0.00 86 1015.0
20260509064452 42 262 1.0 3.0 0.00 0.00 0.00 86 1014.9
20260509063950 42 213 0.0 2.0 0.00 0.00 0.00 86 1015.1
20260509063445 42 281 1.0 2.0 0.00 0.00 0.00 86 1014.8
20260509062942 42 141 0.0 1.0 0.00 0.00 0.00 86 1015.2
20260509062439 42 33 2.0 2.0 0.00 0.00 0.00 86 1015.0
20260509061937 42 287 1.0 2.0 0.00 0.00 0.00 86 1015.2
20260509061434 42 268 0.0 3.0 0.00 0.00 0.00 87 1015.2
20260509060931 42 262 0.0 2.0 0.00 0.00 0.00 87 1015.3
20260509060429 42 245 0.0 2.0 0.00 0.00 0.00 88 1015.3
20260509055924 42 273 0.0 3.0 0.00 0.00 0.00 87 1015.5
20260509055419 42 189 0.0 1.0 0.00 0.00 0.00 87 1015.4
20260509054916 42 235 0.0 2.0 0.00 0.00 0.00 87 1015.5
20260509054413 42 51 0.0 2.0 0.00 0.00 0.00 87 1015.6
20260509053911 42 258 2.0 2.0 0.00 0.00 0.00 87 1015.6
20260509053409 42 330 2.0 3.0 0.00 0.00 0.00 87 1015.6
20260509052906 42 312 0.0 4.0 0.00 0.00 0.00 87 1015.6
20260509052403 42 23 0.0 3.0 0.00 0.00 0.00 87 1015.4
20260509051901 42 232 1.0 1.0 0.00 0.00 0.00 87 1015.6
20260509051359 41 251 1.0 2.0 0.00 0.00 0.00 87 1015.5
20260509050855 41 280 1.0 2.0 0.00 0.00 0.00 87 1015.6
20260509050352 41 177 0.0 2.0 0.00 0.00 0.00 87 1015.4